Regional Weather Roundup
Issued by NWS Mobile, AL

Home | Current Version | Previous Version | Text Only | Print | Product List | Glossary On
Versions: 1 2 3 4 5 6 7 8 9 10 11 12 13 14 15 16 17 18 19 20 21 22 23 24 25 26 27 28 29 30 31 32 33 34 35 36 37 38 39 40 41 42 43 44 45 46 47 48 49 50
000
ASUS44 KMOB 252310
RWRMOB
REGIONAL WEATHER ROUNDUP
NATIONAL WEATHER SERVICE MOBILE AL
500 PM CST TUE NOV 25 2014

NOTE: "FAIR" INDICATES FEW OR NO CLOUDS BELOW 12,000 FEET WITH NO
      SIGNIFICANT WEATHER AND/OR OBSTRUCTIONS TO VISIBILITY.

  * THESE STATIONS ARE PART OF THE UNIVERSITY OF SOUTH ALABAMA
    MESONET AND ARE NOT UNDER NWS OR FAA QUALITY CONTROL.

ALZ061>064-260000-
COASTAL ALABAMA

CITY           SKY/WX    TMP DP  RH WIND       PRES   REMARKS
MOBILE REG APT CLOUDY    53  36  52 NW8       30.12R
BROOKLEY FIELD CLOUDY    57  35  43 NW13      30.11R
USA CAMPUS*      N/A     54  36  50 CALM      30.11S
DOG RIVER*     NOT AVBL


CITY           SKY/WX    TMP DP  RH WIND       PRES   REMARKS
MOUNT VERNON*    N/A     54  34  47 CALM      30.12R
SARALAND*      NOT AVBL
BAY MINETTE*   NOT AVBL
LOXLEY*          N/A     54  36  50 N12       30.07S
ROBERTSDALE*     N/A     55  36  47 VRB6      30.06S
FAIRHOPE*        N/A     55  36  47 N9        30.07R
ELBERTA*         N/A     57  36  44 NW8       30.06R
FOLEY*           N/A     48  46  93 CALM      30.04R
GRAND BAY*       N/A     54  36  50 NW3       30.10R
DAUPHIN ISLND* NOT AVBL
BON SCOUR NWR* NOT AVBL
GULF SHORES    CLOUDY    56  37  48 N5        30.05F

$$

ALZ051>060-260000-
INTERIOR SOUTHWEST AND SOUTH CENTRAL ALABAMA

CITY           SKY/WX    TMP DP  RH WIND       PRES   REMARKS
GREENVILLE     CLOUDY    56  34  43 W5        30.07
EVERGREEN      CLOUDY    56  35  45 NW6       30.08S
CASTLEBERRY*   NOT AVBL
ATMORE*          N/A     55  36  47 NW6       30.12R
DIXIE*           N/A     52  46  82 CALM      30.03R
ANDALUSIA/OPP  CLOUDY    57  41  55 CALM      30.06R
ANDALUSIA*       N/A     52  43  71 CALM      30.05R
FLORALA APT    LGT RAIN  50  47  89 CALM      30.07R
FLORALA*         N/A     48  46  93 CALM      30.04R

$$

FLZ001>006-260000-
WESTERN FLORIDA PANHANDLE

CITY           SKY/WX    TMP DP  RH WIND       PRES   REMARKS
PENSACOLA      LGT RAIN  54  44  69 N3        30.06R
NAS PENSACOLA  CLOUDY    54  44  69 N3        30.06R
MILTON         CLOUDY    53  44  71 NW5       30.08R
WHTNG S FIELD  CLOUDY    54  46  74 NW3       30.08R


CITY           SKY/WX    TMP DP  RH WIND       PRES   REMARKS
WALNUT HILL*   NOT AVBL
JAY*             N/A     55  36  47 W3        30.11R
DUKE FIELD     LGT RAIN  51  47  88 N3        30.06R
CRESTVIEW      CLOUDY    50  48  93 CALM      30.07R
VALPARAISO     CLOUDY    51  48  89 N3        30.06R
DESTIN         LGT RAIN  52  47  83 N5        30.06R

$$

MSZ076-079-260000-
INTERIOR SOUTHEAST MISSISSIPPI

CITY           SKY/WX    TMP DP  RH WIND       PRES   REMARKS
LEAKESVILLE*     N/A     52  36  54 CALM      30.12R
AGRICOLA*      NOT AVBL

$$

MARINE OBSERVATIONS

STATION/POSITION TIME  TEMP    WIND        PRES    WAVE
                       AIR SEA DIR/SP/G            HT/PER
                 (UTC) (F)     (DEG/KT/KT) (MB)    (FT/S)
PASCAGOULA       2300   55     330/ 11/ 15 1018.9F
PETIT BOIS ISLND 2300   56     340/ 19/ 23 1019.3F
GRAND BAY        2200   57     340/ 10     1020.0R
KATRINA CUT      2200   58     340/ 16     1019.3R
CEDAR POINT      2200   56     330/ 13     1018.3R
E DAUPHIN ISLAND 2300   56     320/ 18/ 21 1019.0R
MIDDLE BAY LIGHT 2200   58     340/ 17     1018.0R
USCG MOBILE BAY  2300   56 60  330/  6/ 10 1017.9F
STATE DOCKS      2300   57 59              1018.5F
MEAHER PARK      2200   57     310/  9     1020.0R
WEEKS BAY        2200   58                   N/A
FORT MORGAN      2300   57     340/ 23/ 26 1017.4R
12 S ORANGE BCH  2300   60 68  340/ 14/ 17 1017.4R   2/ 5
PENSACOLA BAY    2300   56 60  340/  1/  4 1018.4R
64 S DAUPHIN ISL 2200   61 72  340/ 19/ 27 1019.5    6/ 6
67 S FORT MORGAN 2100   59     360/ 21     1016.6R

$$

SELECTED LOCATIONS ACROSS THE REGION

CITY           SKY/WX    TMP DP  RH WIND       PRES   REMARKS
NEW ORLEANS    CLOUDY    54  33  45 N8        30.14F
GULFPORT       CLOUDY    53  36  52 NW8       30.11F
PASCAGOULA AP  CLOUDY    54  36  50 NW8       30.10F
PASCAGOULA*      N/A     55  36  47 N6        30.10S
HATTIESBURG    CLOUDY    52  33  48 NW5       30.15S
LAUREL         CLOUDY    50  30  46 N7        30.15S
MERIDIAN       CLOUDY    49  27  42 NW8       30.16R
JACKSON        CLOUDY    49  26  41 NW7       30.19R
MONTGOMERY     CLOUDY    57  34  41 NW3       30.07R
TROY           CLOUDY    53  44  71 NW3       30.07R
KINSTON*       NOT AVBL
GENEVA*          N/A     50  45  81 E2        30.10R
ASHFORD*         N/A     52  43  71 CALM      30.05R
DOTHAN         LGT RAIN  49  44  83 NE7       30.08S
PANAMA CITY    CLOUDY    50  47  89 N12       30.03R

$$



USA.gov is the U.S. government's official web portal to all federal, state and local government web resources and services.